GW3847 Weather Reports


Display with metric or nautical units.
time (UTC)temp
F
wind
direction
speed
MPH
gust
MPH
rain 1hr
in
rain 24hr
in
rain mn
in
humidity
%
barometer
mb
20260414052024 53 203 0.0 0.0 0.00 0.00 0.00 95 1015.2
20260414051519 53 303 0.0 0.0 0.00 0.00 0.00 96 1014.9
20260414051014 54 256 0.0 0.0 0.00 0.00 0.00 96 1015.1
20260414050512 54 267 0.0 0.0 0.00 0.00 0.00 96 1015.1
20260414050011 54 340 0.0 0.0 0.00 0.00 0.00 95 1015.4
20260414045508 54 309 0.0 0.0 0.00 0.00 0.00 94 1015.4
20260414045006 55 295 0.0 0.0 0.00 0.00 0.00 94 1015.4
20260414044503 56 315 0.0 0.0 0.00 0.00 0.00 93 1015.2
20260414044001 56 272 0.0 0.0 0.00 0.00 0.00 92 1015.1
20260414043459 56 329 0.0 0.0 0.00 0.00 0.00 92 1014.9
20260414042955 57 42 0.0 0.0 0.00 0.00 0.00 91 1015.0
20260414042450 56 228 0.0 0.0 0.00 0.00 0.00 92 1015.2
20260414041948 56 261 0.0 0.0 0.00 0.00 0.00 92 1015.4
20260414041445 56 171 0.0 0.0 0.00 0.00 0.00 93 1015.1
20260414040943 56 282 0.0 3.0 0.00 0.00 0.00 94 1015.1
20260414040443 54 309 0.0 0.0 0.00 0.00 0.00 96 1015.2
20260414035940 55 301 0.0 0.0 0.00 0.08 0.08 95 1015.2
20260414035439 55 327 0.0 0.0 0.00 0.08 0.08 95 1015.1
20260414034937 55 188 0.0 0.0 0.00 0.08 0.08 94 1014.9
20260414034436 55 263 0.0 0.0 0.00 0.08 0.08 94 1015.1
20260414033933 56 304 0.0 0.0 0.00 0.08 0.08 93 1014.9
20260414033430 56 273 0.0 0.0 0.00 0.08 0.08 93 1014.9
20260414032928 56 241 0.0 0.0 0.00 0.08 0.08 91 1014.8
20260414032425 56 241 0.0 0.0 0.00 0.08 0.08 92 1014.6
20260414031922 56 232 0.0 0.0 0.00 0.08 0.08 93 1014.6
20260414031420 56 232 0.0 0.0 0.00 0.08 0.08 93 1014.6
20260414030919 56 210 0.0 0.0 0.00 0.08 0.08 93 1014.5
20260414030417 56 168 0.0 0.0 0.00 0.08 0.08 92 1014.3
20260414025913 56 104 0.0 0.0 0.00 0.08 0.08 92 1014.3
20260414025409 57 82 0.0 0.0 0.00 0.08 0.08 91 1014.3
20260414024907 58 96 0.0 0.0 0.00 0.08 0.08 89 1014.2
20260414024406 59 86 0.0 0.0 0.00 0.08 0.08 87 1014.2
20260414023902 59 87 0.0 0.0 0.00 0.08 0.08 88 1014.0
20260414023359 60 170 0.0 0.0 0.00 0.08 0.08 85 1014.2
20260414022856 60 89 0.0 0.0 0.00 0.08 0.08 84 1014.2
20260414022354 61 126 0.0 0.0 0.00 0.08 0.08 82 1014.2
20260414021853 62 68 0.0 1.0 0.00 0.08 0.08 82 1014.1
20260414021351 62 200 0.0 0.0 0.00 0.08 0.08 82 1014.1
20260414020848 62 118 0.0 0.0 0.00 0.08 0.08 81 1014.2
20260414020346 63 115 1.0 2.0 0.00 0.08 0.08 80 1013.9
20260414015844 62 212 0.0 2.0 0.00 0.08 0.08 81 1014.0
20260414015341 62 46 0.0 0.0 0.00 0.08 0.08 80 1013.6
20260414014839 63 45 0.0 2.0 0.00 0.08 0.08 80 1013.8
20260414014337 63 151 0.0 4.0 0.00 0.08 0.08 80 1013.9
20260414013835 62 20 0.0 0.0 0.00 0.08 0.08 81 1013.8
20260414013332 62 42 2.0 3.0 0.00 0.08 0.08 81 1014.0
20260414012832 62 120 1.0 3.0 0.00 0.08 0.08 81 1013.8
20260414012329 62 219 0.0 2.0 0.00 0.08 0.08 81 1013.7
20260414011827 61 176 0.0 2.0 0.00 0.08 0.08 84 1013.7
20260414011326 60 215 0.0 2.0 0.00 0.08 0.08 86 1013.8
20260414010824 60 133 0.0 0.0 0.00 0.08 0.08 85 1013.7
20260414010322 59 206 0.0 0.0 0.00 0.08 0.08 86 1013.9
20260414005819 58 268 0.0 0.0 0.00 0.08 0.08 89 1014.0
20260414005316 59 304 0.0 0.0 0.00 0.08 0.08 87 1013.8
20260414004814 60 301 0.0 0.0 0.00 0.08 0.08 85 1013.8
20260414004311 60 293 0.0 0.0 0.00 0.08 0.08 85 1013.8
20260414003808 60 315 0.0 0.0 0.00 0.08 0.08 85 1013.5
20260414003306 60 336 0.0 0.0 0.00 0.08 0.08 86 1013.6
20260414002804 59 295 0.0 0.0 0.00 0.08 0.08 86 1013.3
20260414002306 59 7 0.0 0.0 0.00 0.08 0.08 87 1013.2
20260414001801 59 280 0.0 0.0 0.00 0.08 0.08 86 1013.4
20260414001300 60 240 0.0 2.0 0.00 0.08 0.08 85 1013.3
20260414000758 62 304 0.0 0.0 0.00 0.08 0.08 83 1013.0
20260414000256 63 274 0.0 0.0 0.00 0.08 0.08 80 1012.8
20260413235751 63 195 0.0 0.0 0.00 0.08 0.08 80 1012.9
20260413235248 64 168 0.0 0.0 0.00 0.08 0.08 78 1012.8
20260413234745 64 357 0.0 0.0 0.00 0.08 0.08 77 1012.9
20260413234242 64 154 0.0 2.0 0.00 0.08 0.08 77 1012.8
20260413233738 64 175 0.0 1.0 0.00 0.08 0.08 77 1012.9
20260413233235 64 117 0.0 2.0 0.00 0.08 0.08 76 1012.8
20260413232733 65 167 0.0 0.0 0.00 0.08 0.08 76 1013.0
20260413232230 65 167 0.0 2.0 0.00 0.08 0.08 75 1012.6
20260413231728 65 322 1.0 3.0 0.00 0.08 0.08 75 1012.8
20260413231225 65 280 0.0 2.0 0.00 0.08 0.08 75 1012.6
20260413230723 65 223 0.0 2.0 0.00 0.08 0.08 75 1012.3
20260413230222 65 45 1.0 3.0 0.00 0.08 0.08 74 1012.2
20260413225719 65 294 0.0 6.0 0.00 0.08 0.08 74 1012.4
20260413225216 66 101 2.0 6.0 0.00 0.08 0.08 73 1012.2
20260413224713 66 135 4.0 9.0 0.00 0.08 0.08 73 1012.0
20260413224210 66 62 1.0 3.0 0.00 0.08 0.08 73 1012.3
20260413223705 65 210 4.0 8.0 0.00 0.08 0.08 73 1012.0
20260413223202 65 101 3.0 8.0 0.00 0.08 0.08 73 1012.1
20260413222659 65 188 3.0 9.0 0.00 0.08 0.08 72 1012.0
20260413222157 65 96 2.0 9.0 0.00 0.08 0.08 72 1011.8
20260413221653 65 20 3.0 4.0 0.00 0.08 0.08 73 1011.7
20260413221151 66 52 0.0 7.0 0.00 0.08 0.08 72 1011.8
20260413220649 66 93 2.0 7.0 0.00 0.08 0.08 70 1011.9
20260413220146 66 220 4.0 6.0 0.00 0.08 0.08 71 1012.0
20260413215643 67 172 0.0 0.0 0.00 0.08 0.08 70 1012.1
20260413215140 66 210 0.0 0.0 0.00 0.08 0.08 70 1012.0
20260413214638 64 199 0.0 0.0 0.00 0.08 0.08 74 1011.8
20260413214136 64 65 4.0 4.0 0.00 0.08 0.08 76 1011.8
20260413213633 63 178 1.0 2.0 0.00 0.08 0.08 77 1011.7
20260413213132 63 141 0.0 1.0 0.00 0.08 0.08 80 1011.7
20260413212629 63 155 0.0 0.0 0.00 0.08 0.08 78 1011.7
20260413212125 63 168 0.0 1.0 0.00 0.08 0.08 77 1011.7
20260413211622 62 155 0.0 1.0 0.00 0.08 0.08 79 1011.3
20260413211118 62 144 3.0 6.0 0.00 0.08 0.08 79 1011.6
20260413210616 62 181 0.0 2.0 0.00 0.08 0.08 79 1011.4
20260413210114 63 55 0.0 1.0 0.00 0.08 0.08 78 1011.4
20260413205610 62 122 1.0 4.0 0.00 0.08 0.08 78 1011.2
20260413205106 62 154 2.0 4.0 0.00 0.08 0.08 78 1011.4
20260413204605 62 106 1.0 6.0 0.00 0.08 0.08 79 1011.3
20260413204103 63 177 3.0 10.0 0.00 0.08 0.08 78 1011.4
20260413203559 63 120 2.0 7.0 0.00 0.08 0.08 76 1011.2
20260413203055 64 121 2.0 4.0 0.00 0.08 0.08 76 1011.1
20260413202552 64 177 2.0 8.0 0.00 0.08 0.08 76 1011.1
20260413202049 64 237 3.0 4.0 0.00 0.08 0.08 76 1011.0
20260413201546 64 132 0.0 0.0 0.00 0.08 0.08 80 1010.9
20260413201043 64 136 0.0 0.0 0.00 0.08 0.08 77 1010.9
20260413200540 64 150 1.0 2.0 0.00 0.08 0.08 80 1010.9
20260413200038 64 135 0.0 2.0 0.00 0.08 0.08 78 1010.7
20260413195535 64 122 0.0 2.0 0.00 0.08 0.08 83 1010.9
20260413195032 63 152 1.0 2.0 0.00 0.08 0.08 83 1010.8
20260413194529 64 203 0.0 1.0 0.00 0.08 0.08 84 1010.9
20260413194026 65 117 1.0 2.0 0.00 0.08 0.08 83 1011.1
20260413193524 63 176 0.0 0.0 0.00 0.08 0.08 88 1011.0
20260413193021 61 202 0.0 0.0 0.00 0.08 0.08 92 1011.1
20260413192519 61 309 1.0 2.0 0.00 0.08 0.08 93 1011.2
20260413192017 60 160 0.0 0.0 0.00 0.08 0.08 94 1011.3
20260413191515 60 29 0.0 3.0 0.00 0.08 0.08 94 1011.2
20260413191012 60 120 0.0 2.0 0.00 0.08 0.08 94 1011.1
20260413190511 59 108 1.0 2.0 0.07 0.08 0.08 94 1011.6
20260413190008 58 165 2.0 3.0 0.07 0.08 0.08 93 1011.8
20260413185505 58 10 2.0 3.0 0.07 0.07 0.07 93 1011.8
20260413185000 58 101 1.0 6.0 0.07 0.07 0.07 92 1012.2
20260413184459 59 171 1.0 3.0 0.05 0.06 0.06 90 1012.4
20260413183956 61 155 0.0 6.0 0.05 0.06 0.06 84 1012.9
20260413183454 63 175 0.0 1.0 0.00 0.05 0.05 77 1012.8
20260413182952 63 87 0.0 0.0 0.00 0.05 0.05 74 1012.7
20260413182449 63 61 0.0 1.0 0.00 0.05 0.05 72 1012.3
20260413181946 63 121 0.0 1.0 0.00 0.05 0.05 73 1012.5
20260413181444 63 94 0.0 3.0 0.00 0.05 0.05 73 1012.3
20260413180941 63 179 1.0 2.0 0.00 0.05 0.05 71 1012.1
20260413180438 63 188 0.0 2.0 0.00 0.05 0.05 70 1012.4
20260413175935 64 240 2.0 4.0 0.00 0.05 0.05 69 1012.4
20260413175432 64 193 0.0 1.0 0.00 0.05 0.05 68 1012.5
20260413174929 63 141 3.0 6.0 0.00 0.05 0.05 70 1012.5
20260413174427 62 119 2.0 3.0 0.00 0.05 0.05 70 1012.5
20260413173924 64 119 3.0 4.0 0.00 0.05 0.05 67 1012.4
20260413173422 64 134 0.0 3.0 0.00 0.05 0.05 67 1012.7
20260413172920 63 127 2.0 3.0 0.00 0.05 0.05 69 1012.6
20260413172416 64 64 0.0 3.0 0.00 0.05 0.05 68 1012.8
20260413171913 64 92 2.0 3.0 0.00 0.05 0.05 68 1012.9
20260413171410 64 175 1.0 4.0 0.00 0.05 0.05 68 1012.9
20260413170908 63 140 2.0 9.0 0.00 0.05 0.05 68 1013.0
20260413170405 62 105 0.0 6.0 0.00 0.05 0.05 70 1013.3
20260413165902 62 148 1.0 4.0 0.00 0.05 0.05 70 1013.4
20260413165359 62 170 4.0 4.0 0.00 0.05 0.05 70 1013.6
20260413164856 61 117 0.0 4.0 0.00 0.05 0.05 71 1013.8
20260413164353 63 101 3.0 6.0 0.00 0.05 0.05 67 1014.0
20260413163849 63 130 2.0 2.0 0.00 0.05 0.05 68 1014.1
20260413163346 60 118 0.0 6.0 0.00 0.05 0.05 72 1014.2
20260413162843 61 78 5.0 8.0 0.00 0.05 0.05 71 1014.4
20260413162339 60 174 3.0 8.0 0.00 0.05 0.05 74 1014.5
20260413161836 60 94 2.0 8.0 0.00 0.05 0.05 75 1014.6
20260413161333 59 166 0.0 4.0 0.00 0.05 0.05 75 1014.6
20260413160831 58 129 0.0 2.0 0.00 0.05 0.05 74 1014.6
20260413160328 57 134 2.0 4.0 0.00 0.05 0.05 76 1014.8
20260413155825 56 126 4.0 6.0 0.00 0.05 0.05 76 1014.7
20260413155322 56 51 2.0 6.0 0.00 0.05 0.05 77 1014.8
20260413154820 56 157 3.0 6.0 0.00 0.05 0.05 78 1014.9
20260413154319 56 88 6.0 10.0 0.00 0.05 0.05 77 1015.4
20260413153817 56 177 1.0 4.0 0.00 0.05 0.05 78 1015.1
20260413153314 56 186 1.0 6.0 0.00 0.05 0.05 77 1015.2
20260413152810 55 131 1.0 3.0 0.00 0.05 0.05 78 1015.5
20260413152307 56 168 1.0 2.0 0.00 0.05 0.05 78 1015.6
20260413151805 56 148 1.0 3.0 0.00 0.05 0.05 78 1015.7
20260413151303 54 101 1.0 3.0 0.00 0.05 0.05 80 1015.9
20260413150800 54 235 0.0 2.0 0.00 0.05 0.05 80 1016.0
20260413150257 54 130 0.0 3.0 0.00 0.05 0.05 81 1016.0
20260413145752 54 150 2.0 4.0 0.00 0.05 0.05 79 1016.1
20260413145251 54 145 2.0 3.0 0.00 0.05 0.05 80 1016.2
20260413144748 53 139 1.0 4.0 0.00 0.05 0.05 81 1016.3
20260413144245 53 122 0.0 2.0 0.00 0.05 0.05 81 1016.2
20260413143742 53 152 4.0 7.0 0.00 0.05 0.05 80 1016.5
20260413143237 53 205 1.0 7.0 0.00 0.05 0.05 82 1016.8
20260413142734 53 132 1.0 9.0 0.00 0.05 0.05 81 1016.9
20260413142231 53 202 4.0 6.0 0.00 0.05 0.05 80 1017.1
20260413141728 53 118 3.0 8.0 0.00 0.05 0.05 79 1017.6
20260413141227 53 251 2.0 8.0 0.00 0.05 0.05 81 1017.6
20260413140725 53 158 2.0 4.0 0.00 0.05 0.05 80 1017.6
20260413140223 53 94 2.0 6.0 0.00 0.05 0.05 81 1017.7
20260413135721 53 245 5.0 8.0 0.00 0.05 0.05 80 1017.7
20260413135218 53 197 2.0 3.0 0.00 0.05 0.05 80 1017.8
20260413134716 52 158 1.0 6.0 0.00 0.05 0.05 80 1017.8
20260413134215 52 213 4.0 7.0 0.00 0.05 0.05 80 1017.6
20260413133711 52 195 1.0 8.0 0.00 0.05 0.05 82 1017.8
20260413133208 51 321 4.0 4.0 0.00 0.05 0.05 81 1018.0
20260413132705 51 152 0.0 2.0 0.00 0.05 0.05 82 1017.8
20260413132203 51 97 2.0 3.0 0.00 0.05 0.05 81 1018.0
20260413131700 51 180 1.0 6.0 0.00 0.05 0.05 81 1017.9
20260413131157 50 183 3.0 7.0 0.00 0.05 0.05 81 1018.3
20260413130655 51 112 3.0 4.0 0.00 0.05 0.05 80 1018.5
20260413130152 51 192 2.0 7.0 0.00 0.05 0.05 80 1018.3
20260413125650 51 143 0.0 0.0 0.00 0.05 0.05 82 1018.3
20260413125146 49 193 0.0 6.0 0.00 0.05 0.05 81 1018.5
20260413124644 49 170 0.0 3.0 0.00 0.05 0.05 81 1018.6
20260413124140 49 123 0.0 2.0 0.00 0.05 0.05 82 1018.7
20260413123638 49 125 0.0 0.0 0.00 0.05 0.05 82 1018.7
20260413123136 48 127 0.0 0.0 0.00 0.05 0.05 81 1018.6
20260413122632 48 119 0.0 1.0 0.00 0.05 0.05 82 1018.5
20260413122128 48 149 0.0 0.0 0.00 0.05 0.05 82 1018.6
20260413121626 47 126 0.0 2.0 0.00 0.05 0.05 82 1018.6
20260413121124 47 311 0.0 1.0 0.00 0.05 0.05 82 1018.8
20260413120621 47 154 0.0 3.0 0.00 0.05 0.05 82 1018.9
20260413120117 46 124 0.0 0.0 0.00 0.05 0.05 83 1018.8
20260413115614 46 128 0.0 2.0 0.00 0.05 0.05 82 1019.0
20260413115111 46 201 0.0 1.0 0.00 0.05 0.05 83 1018.8
20260413114608 46 136 1.0 3.0 0.00 0.05 0.05 83 1019.2
20260413114105 46 151 1.0 3.0 0.00 0.05 0.05 84 1019.3
20260413113602 46 138 0.0 0.0 0.00 0.05 0.05 85 1019.3
20260413113100 45 141 1.0 4.0 0.00 0.05 0.05 85 1019.4
20260413112557 45 204 0.0 4.0 0.00 0.05 0.05 85 1019.6
20260413112055 45 157 0.0 0.0 0.00 0.05 0.05 85 1019.6
20260413111553 45 118 0.0 1.0 0.00 0.05 0.05 85 1019.4
20260413111051 44 124 0.0 3.0 0.00 0.05 0.05 83 1019.7
20260413110548 44 137 0.0 2.0 0.00 0.05 0.05 84 1019.8
20260413110046 44 130 0.0 0.0 0.00 0.05 0.05 85 1020.0
20260413105545 44 154 0.0 0.0 0.00 0.05 0.05 85 1019.7
20260413105042 44 233 3.0 3.0 0.00 0.05 0.05 84 1020.0
20260413104539 43 102 1.0 4.0 0.00 0.05 0.05 85 1019.8
20260413104037 42 65 1.0 2.0 0.00 0.05 0.05 88 1019.8
20260413103534 43 144 0.0 0.0 0.00 0.05 0.05 87 1019.8
20260413103033 42 95 0.0 0.0 0.00 0.05 0.05 89 1020.1
20260413102530 42 165 0.0 0.0 0.00 0.05 0.05 89 1020.0
20260413102028 42 230 0.0 1.0 0.00 0.05 0.05 88 1020.3
20260413101524 42 141 0.0 3.0 0.00 0.05 0.05 87 1020.3
20260413101021 42 214 0.0 0.0 0.00 0.05 0.05 88 1020.3
20260413100519 42 158 0.0 2.0 0.00 0.05 0.05 85 1020.3
20260413100016 43 157 0.0 0.0 0.00 0.05 0.05 84 1020.4
20260413095514 43 103 1.0 3.0 0.00 0.05 0.05 84 1020.4
20260413095012 43 153 0.0 0.0 0.00 0.05 0.05 84 1020.3
20260413094509 43 229 0.0 2.0 0.00 0.05 0.05 84 1020.2
20260413094006 43 181 0.0 0.0 0.00 0.05 0.05 86 1020.4
20260413093505 42 134 0.0 2.0 0.00 0.05 0.05 84 1020.5
20260413093002 42 58 0.0 4.0 0.00 0.05 0.05 84 1020.6
20260413092459 43 145 3.0 4.0 0.00 0.05 0.05 83 1020.5
20260413091956 42 224 2.0 6.0 0.00 0.05 0.05 84 1020.8
20260413091453 42 136 1.0 9.0 0.00 0.05 0.05 83 1020.8
20260413090951 42 199 1.0 2.0 0.00 0.05 0.05 86 1021.0
20260413090449 42 155 0.0 1.0 0.00 0.05 0.05 88 1021.0
20260413085945 42 129 0.0 2.0 0.00 0.05 0.05 87 1021.0
20260413085444 42 125 0.0 3.0 0.00 0.05 0.05 86 1021.2
20260413084939 42 130 0.0 0.0 0.00 0.05 0.05 87 1021.2
20260413084436 42 203 2.0 2.0 0.00 0.05 0.05 87 1021.4
20260413083934 42 79 0.0 2.0 0.00 0.05 0.05 88 1021.4
20260413083432 41 146 0.0 6.0 0.00 0.05 0.05 87 1021.7
20260413082927 41 171 0.0 7.0 0.00 0.05 0.05 89 1021.6
20260413082425 41 131 1.0 2.0 0.00 0.05 0.05 89 1021.7
20260413081922 41 109 1.0 4.0 0.00 0.05 0.05 89 1021.8
20260413081420 41 216 0.0 3.0 0.00 0.05 0.05 90 1021.6
20260413080916 40 218 0.0 1.0 0.00 0.05 0.05 92 1021.7
20260413080414 40 235 0.0 2.0 0.00 0.05 0.05 92 1021.7
20260413075910 40 207 0.0 2.0 0.00 0.05 0.05 91 1021.8
20260413075408 40 143 0.0 1.0 0.00 0.05 0.05 92 1022.1
20260413074904 40 138 0.0 3.0 0.00 0.05 0.05 92 1022.1
20260413074403 40 157 0.0 1.0 0.00 0.05 0.05 93 1022.1
20260413073900 40 155 0.0 3.0 0.00 0.05 0.05 93 1022.2
20260413073358 40 140 0.0 0.0 0.00 0.05 0.05 94 1022.5
20260413072856 40 179 1.0 4.0 0.00 0.05 0.05 93 1022.4
20260413072354 39 138 2.0 3.0 0.00 0.05 0.05 94 1022.4
20260413071851 39 119 0.0 3.0 0.00 0.05 0.05 95 1022.6
20260413071349 39 108 1.0 2.0 0.00 0.05 0.05 95 1022.6
20260413070847 39 162 1.0 2.0 0.00 0.05 0.05 96 1022.7
20260413070345 39 144 0.0 1.0 0.00 0.05 0.05 97 1023.0
20260413065843 39 159 1.0 2.0 0.00 0.05 0.05 97 1023.1
20260413065341 39 140 0.0 4.0 0.00 0.05 0.05 96 1023.0
20260413064837 39 188 1.0 2.0 0.00 0.05 0.05 97 1023.2
20260413064334 39 125 0.0 0.0 0.00 0.05 0.05 97 1023.1
20260413063832 39 133 0.0 2.0 0.00 0.05 0.05 97 1023.3
20260413063331 38 143 0.0 2.0 0.00 0.05 0.05 97 1023.4
20260413062828 38 148 0.0 0.0 0.00 0.05 0.05 97 1023.7
20260413062326 38 130 1.0 4.0 0.07 0.05 0.05 97 1023.8
20260413061824 38 179 0.0 0.0 0.07 0.05 0.05 97 1024.0
20260413061320 38 150 0.0 0.0 0.00 0.04 0.04 97 1024.1
20260413060817 38 169 0.0 0.0 0.00 0.04 0.04 97 1024.5
20260413060316 38 145 0.0 0.0 0.00 0.04 0.04 96 1024.6
20260413055814 38 147 0.0 0.0 0.00 0.04 0.04 96 1024.8
20260413055313 38 147 0.0 0.0 0.00 0.04 0.04 96 1024.7
20260413054810 38 129 0.0 0.0 0.00 0.04 0.04 96 1024.8
20260413054308 38 167 0.0 0.0 0.05 0.04 0.04 96 1024.8
20260413053806 38 116 0.0 3.0 0.05 0.04 0.04 96 1025.0
20260413053304 38 164 0.0 0.0 0.00 0.03 0.03 95 1025.1
20260413052803 38 140 1.0 1.0 0.00 0.03 0.03 94 1025.1